Terminal Aerodrome Forecast
Issued by NWS Charleston, WV

Current Version | Previous Version | Graphics & Text | Print | Product List | Glossary On
Versions: 1 2 3 4 5 6 7 8 9 10 11 12 13 14 15 16 17 18 19 20 21 22 23 24 25 26 27 28 29 30 31 32 33
423
FTUS41 KRLX 230720 AAA
TAFPKB
TAF AMD
KPKB 230720Z 2307/2406 00000KT 5SM BR VCSH BKN100
     FM231000 00000KT 2SM BR BKN015
     FM231400 22005KT 5SM HZ SCT025 BKN050
     FM231800 23005KT P6SM VCTS BKN050CB=

USA.gov is the U.S. government's official web portal to all federal, state and local government web resources and services.